TimeAKDT,TemperatureF,Dew PointF,Humidity,Sea Level PressureIn,VisibilityMPH,Wind Direction,Wind SpeedMPH,Gust SpeedMPH,PrecipitationIn,Events,Conditions,WindDirDegrees,DateUTC
12:29 AM,-9999,-9999,N/A,30.23,0.2,WSW,44.9,73.6,N/A,Fog,Light Freezing Fog,240,2013-06-12 08:29:00
12:55 AM,-9999,-9999,N/A,30.23,0.2,North,-9999.0,-,N/A,Fog,Light Freezing Fog,0,2013-06-12 08:55:00
1:29 AM,30.2,30.2,100,30.23,10.0,North,-9999.0,-,N/A,Fog,Light Freezing Fog,0,2013-06-12 09:29:00
1:49 AM,-9999,-9999,N/A,30.22,10.0,North,-9999.0,-,N/A,,Clear,0,2013-06-12 09:49:00
1:55 AM,-9999,-9999,N/A,30.22,10.0,NE,11.5,-,N/A,,Clear,50,2013-06-12 09:55:00
2:09 AM,-9999,-9999,N/A,30.22,0.8,NE,11.5,-,N/A,,Partly Cloudy,50,2013-06-12 10:09:00
2:49 AM,30.2,30.2,100,30.22,1.0,NE,11.5,-,N/A,Snow,Light Snow Showers,40,2013-06-12 10:49:00
2:55 AM,29.3,30.0,100,30.21,0.2,ENE,11.5,-,N/A,Snow,Light Snow Showers,60,2013-06-12 10:55:00
3:49 AM,-9999,-9999,N/A,30.20,0.5,NE,12.7,-,N/A,Fog,Light Freezing Drizzle,40,2013-06-12 11:49:00
3:55 AM,-9999,-9999,N/A,30.20,0.8,NNE,15.0,19.6,N/A,,Light Freezing Drizzle,30,2013-06-12 11:55:00
4:29 AM,-9999,-9999,N/A,30.20,0.8,North,-9999.0,-,N/A,,Light Freezing Drizzle,0,2013-06-12 12:29:00
4:55 AM,-9999,-9999,N/A,30.19,0.2,South,82.9,88.6,N/A,,Light Freezing Drizzle,170,2013-06-12 12:55:00
5:09 AM,-9999,-9999,N/A,30.19,0.2,SSE,132.3,-,N/A,,Light Freezing Drizzle,160,2013-06-12 13:09:00
5:55 AM,-9999,-9999,N/A,30.18,0.8,North,-9999.0,-,N/A,,Light Freezing Drizzle,0,2013-06-12 13:55:00
6:09 AM,32.0,32.0,100,30.17,10.0,NNE,23.0,-,N/A,Rain,Light Rain,30,2013-06-12 14:09:00
6:49 AM,-9999,-9999,N/A,30.17,10.0,NNE,23.0,-,N/A,Rain,Light Rain Showers,30,2013-06-12 14:49:00
6:55 AM,35.6,35.6,100,30.15,10.0,NNE,23.0,-,N/A,,Clear,30,2013-06-12 14:55:00
7:55 AM,35.4,35.2,99,30.15,10.0,NE,24.2,-,N/A,,Clear,40,2013-06-12 15:55:00
8:55 AM,36.1,35.4,97,30.16,10.0,NE,20.7,-,N/A,,Clear,40,2013-06-12 16:55:00
9:55 AM,37.2,36.9,99,30.14,10.0,NNE,24.2,-,N/A,,Clear,30,2013-06-12 17:55:00
10:55 AM,38.1,36.9,95,30.14,10.0,NE,25.3,-,N/A,,Clear,40,2013-06-12 18:55:00
11:55 AM,39.4,38.5,97,30.13,10.0,NE,24.2,-,N/A,,Clear,40,2013-06-12 19:55:00
12:55 PM,42.3,39.9,91,30.14,10.0,NNE,19.6,-,N/A,,Mostly Cloudy,30,2013-06-12 20:55:00
1:05 PM,42.8,39.2,87,30.14,12.0,NE,20.7,-,N/A,,Partly Cloudy,40,2013-06-12 21:05:00
1:55 PM,46.4,41.0,81,30.13,12.0,NE,18.4,-,N/A,,Clear,40,2013-06-12 21:55:00
2:55 PM,50.0,44.6,82,30.12,12.0,NNE,17.3,-,N/A,,Clear,30,2013-06-12 22:55:00
3:55 PM,53.6,44.6,72,30.12,12.0,NNE,16.1,-,N/A,,Clear,30,2013-06-12 23:55:00
4:55 PM,51.8,44.6,76,30.10,12.0,NNE,19.6,-,N/A,,Clear,30,2013-06-13 00:55:00
5:55 PM,49.3,41.7,75,30.09,10.0,NNE,24.2,-,N/A,,Partly Cloudy,30,2013-06-13 01:55:00
6:55 PM,50.0,42.8,76,30.08,12.0,NNE,20.7,-,N/A,,Partly Cloudy,30,2013-06-13 02:55:00
7:55 PM,48.9,41.9,77,30.07,10.0,NNE,21.9,-,N/A,,Partly Cloudy,30,2013-06-13 03:55:00
8:55 PM,44.1,39.6,84,30.06,10.0,NNE,24.2,-,N/A,,Scattered Clouds,30,2013-06-13 04:55:00
9:55 PM,45.5,41.0,84,30.06,10.0,NNE,23.0,-,N/A,,Partly Cloudy,30,2013-06-13 05:55:00
10:55 PM,44.4,40.1,85,30.06,10.0,NNE,24.2,-,N/A,,Mostly Cloudy,30,2013-06-13 06:55:00
11:55 PM,45.1,41.2,86,30.05,10.0,NNE,24.2,-,N/A,,Mostly Cloudy,30,2013-06-13 07:55:00